Tracking 21970 objects as of 25-Nov-2020
HD Live streaming from Space Station
objects crossing your sky now

SL-3 R/B

Track SL-3 R/B now!
10-day predictions


NORAD ID: 12586
Int'l Code: 1981-065B
Perigee: 528.3 km
Apogee: 553.2 km
Inclination: 97.6 °
Period: 95.3 minutes
Semi major axis: 6911 km
RCS: 7.238 m2 (large)
Launch date: July 10, 1981
Source: Commonwealth of Independent States (former USSR) (CIS)
Launch site: TYURATAM MISSILE AND SPACE COMPLEX (TTMTR)

Note: This is a ROCKET BODY
aabbcc
Your satellite tracking list
Your tracking list is empty




NASA's NSSDC Master Catalog

Two Line Element Set (TLE):
1 12586U 81065B   20330.50427824 +.00000733 +00000-0 +47903-4 0  9992
2 12586 097.6380 312.6766 0018032 201.4924 158.5551 15.10849443142134
Source of the keplerian elements: AFSPC